Location: Home
(42.5358°N, 72.7383°W)
Time: 04:10:54
(UTC-04:00)

Explorer 11/Cluster Stage 4 - Pass Details

Date: 21 April 2025
Orbit: 463 x 1190 km, 28.8° (Epoch: 11 May)

Event Time Altitude Azimuth Distance (km) Brightness Sun altitude
Rises 04:59:45 0° 214° (SW) 3,716 - -11.1°
Exits shadow 05:01:58 - 204° (SSW) 3,122 9.2 -10.7°
Reaches altitude 10° 05:04:34 10° 186° (S) 2,576 8.9 -10.3°
Maximum altitude 05:06:42 12° 165° (SSE) 2,352 8.9 -9.9°
Drops below altitude 10° 05:08:43 10° 145° (SE) 2,392 9.2 -9.6°
Sets 05:12:44 0° 114° (ESE) 3,127 10.3 -8.9°
